Location: Helsinki
(60.1699°N, 24.9384°E)
Time: 22:42:08
(UTC+02:00)

Transit 4A - Pass Details

Date: 03 November 2020
Orbit: 862 x 982 km, 66.8° (Epoch: 25 November)

Event Time Altitude Azimuth Distance (km) Brightness Sun altitude
Rises 18:17:34 0° 277° (W) 3,672 12.7 -15.0°
Reaches altitude 10° 18:20:14 10° 283° (WNW) 2,734 11.6 -15.3°
Maximum altitude 18:26:25 48° 357° (N) 1,277 8.6 -16.1°
Enters shadow 18:30:28 21° 62° (ENE) 2,035 9.2 -16.6°
